Location: Unspecified
(0.0000°N, 0.0000°E)
Time: 11:21:09
(UTC+00:00)

SR - Pass Details

Date: 24 November 2019
Orbit: 573 x 882 km, 66.7° (Epoch: 13 December)

Event Time Altitude Azimuth Distance (km) Brightness Sun altitude
Rises 11:09:13 0° 177° (S) 2,901 ? 67.5°
Reaches altitude 10° 11:11:45 10° 163° (SSE) 2,037 ? 67.8°
Maximum altitude 11:15:30 24° 108° (ESE) 1,372 ? 68.1°
Drops below altitude 10° 11:19:29 10° 54° (NE) 2,186 ? 68.4°
Sets 11:22:19 0° 41° (NE) 3,165 ? 68.6°
